SYR981 EGLL-OSDI

Flight info

Callsign SYR981
Flight time 4h 9m
Altitude 37000
Route DET L6 DVR UL9 KONAN L607 KOK M150 PITES DCT MAH L173 OTT DCT UNKEN L603 LATLO DCT RADLY DCT PETOV DCT SIVLA DCT OSNIP DCT INRES DCT NISVA N131 RODIP UN131 BELGI UT38 VESAR L620 BALMA UR655 LEBOR
Aircraft A333/H-SDE3GHIJ2J3J5M1RVWXY/LB2D1

Departure

Time 2026-04-18 07:16
Airport London Heathrow Airport (EGLL)

Arrival

Time 2026-04-18 11:25
Airport Damascus International Airport (OSDI)
Time Latitude Longitude Altitude Speed Heading
2026-04-18 06:42 51.46919 -0.47001 94 ft 0 kts 269°
2026-04-18 06:54 51.46919 -0.46991 90 ft 4 kts 269°
2026-04-18 06:54 51.46919 -0.46947 92 ft 4 kts 269°
2026-04-18 06:54 51.46919 -0.46905 93 ft 4 kts 278°
2026-04-18 06:54 51.46910 -0.46870 92 ft 4 kts 329°
2026-04-18 06:55 51.46892 -0.46862 91 ft 4 kts 359°
2026-04-18 06:55 51.46869 -0.46862 91 ft 1 kts 359°
2026-04-18 06:58 51.46876 -0.46862 91 ft 2 kts 359°
2026-04-18 06:58 51.46898 -0.46862 91 ft 4 kts 359°
2026-04-18 06:58 51.46933 -0.46863 92 ft 6 kts 360°
2026-04-18 06:58 51.46982 -0.46863 91 ft 8 kts 360°
2026-04-18 06:59 51.47039 -0.46863 90 ft 9 kts 360°
2026-04-18 06:59 51.47102 -0.46864 90 ft 10 kts 359°
2026-04-18 06:59 51.47171 -0.46865 92 ft 10 kts 360°
2026-04-18 06:59 51.47246 -0.46865 90 ft 11 kts
2026-04-18 07:00 51.47327 -0.46865 90 ft 12 kts 360°
2026-04-18 07:00 51.47410 -0.46880 93 ft 12 kts 346°
2026-04-18 07:00 51.47488 -0.46863 95 ft 11 kts 51°
2026-04-18 07:00 51.47503 -0.46750 93 ft 11 kts 70°
2026-04-18 07:01 51.47515 -0.46634 91 ft 11 kts 90°
2026-04-18 07:01 51.47516 -0.46508 93 ft 12 kts 89°
2026-04-18 07:01 51.47516 -0.46370 90 ft 13 kts 89°
2026-04-18 07:01 51.47517 -0.46222 90 ft 14 kts 89°
2026-04-18 07:02 51.47517 -0.46064 90 ft 14 kts 90°
2026-04-18 07:02 51.47517 -0.45900 90 ft 15 kts 90°
2026-04-18 07:02 51.47511 -0.45725 93 ft 16 kts 98°
2026-04-18 07:02 51.47508 -0.45550 93 ft 16 kts 91°
2026-04-18 07:03 51.47509 -0.45369 93 ft 16 kts 90°
2026-04-18 07:03 51.47509 -0.45181 93 ft 17 kts 89°
2026-04-18 07:03 51.47510 -0.44987 93 ft 18 kts 90°
2026-04-18 07:03 51.47510 -0.44788 93 ft 18 kts 89°
2026-04-18 07:04 51.47504 -0.44583 93 ft 18 kts 97°
2026-04-18 07:04 51.47504 -0.44376 93 ft 19 kts 89°
2026-04-18 07:04 51.47504 -0.44163 93 ft 19 kts 89°
2026-04-18 07:04 51.47505 -0.43948 93 ft 20 kts 89°
2026-04-18 07:05 51.47483 -0.43767 95 ft 15 kts 139°
2026-04-18 07:05 51.47458 -0.43627 91 ft 14 kts 63°
2026-04-18 07:05 51.47539 -0.43591 92 ft 13 kts 359°
2026-04-18 07:05 51.47611 -0.43541 94 ft 7 kts 42°
2026-04-18 07:06 51.47613 -0.43537 94 ft 0 kts 43°
2026-04-18 07:14 51.47614 -0.43537 94 ft 0 kts 43°
2026-04-18 07:14 51.47624 -0.43520 94 ft 5 kts 44°
2026-04-18 07:14 51.47655 -0.43468 94 ft 9 kts 49°
2026-04-18 07:15 51.47705 -0.43425 94 ft 8 kts
2026-04-18 07:15 51.47760 -0.43424 94 ft 6 kts 338°
2026-04-18 07:15 51.47768 -0.43477 92 ft 7 kts 270°
2026-04-18 07:15 51.47767 -0.43877 91 ft 73 kts 269°
2026-04-18 07:16 51.47763 -0.45066 95 ft 140 kts 269°
2026-04-18 07:16 51.47758 -0.46848 480 ft 168 kts 269°
2026-04-18 07:16 51.47787 -0.48714 1493 ft 166 kts 273°
2026-04-18 07:16 51.47826 -0.50503 2311 ft 159 kts 271°
2026-04-18 07:17 51.47730 -0.52365 2635 ft 177 kts 261°
2026-04-18 07:17 51.47228 -0.54299 2893 ft 202 kts 238°
2026-04-18 07:17 51.46093 -0.55841 3139 ft 230 kts 208°
2026-04-18 07:17 51.44459 -0.56184 3565 ft 249 kts 173°
2026-04-18 07:18 51.42886 -0.54961 4063 ft 265 kts 143°
2026-04-18 07:18 51.41531 -0.52881 4725 ft 273 kts 136°
2026-04-18 07:18 51.40218 -0.50657 5553 ft 276 kts 137°
2026-04-18 07:18 51.38889 -0.48422 6427 ft 278 kts 138°
2026-04-18 07:19 51.37537 -0.46184 7258 ft 280 kts 139°
2026-04-18 07:19 51.36163 -0.43938 8069 ft 284 kts 139°
2026-04-18 07:19 51.34766 -0.41672 8885 ft 288 kts 139°
2026-04-18 07:19 51.33347 -0.39377 9702 ft 292 kts 139°
2026-04-18 07:20 51.32043 -0.36825 10437 ft 303 kts 125°
2026-04-18 07:20 51.31258 -0.33569 10800 ft 329 kts 101°
2026-04-18 07:20 51.31378 -0.29801 11088 ft 353 kts 80°
2026-04-18 07:20 51.31728 -0.25872 11364 ft 370 kts 90°
2026-04-18 07:21 51.31747 -0.21665 11665 ft 386 kts 92°
2026-04-18 07:21 51.31705 -0.17323 12154 ft 395 kts 93°
2026-04-18 07:21 51.31639 -0.12905 12747 ft 400 kts 95°
2026-04-18 07:21 51.31412 -0.08450 13363 ft 404 kts 97°
2026-04-18 07:22 51.31153 -0.03962 13993 ft 408 kts 98°
2026-04-18 07:22 51.30865 0.00594 14450 ft 412 kts 98°
2026-04-18 07:22 51.30558 0.05152 15021 ft 414 kts 99°
2026-04-18 07:22 51.30237 0.09747 15530 ft 418 kts 99°
2026-04-18 07:23 51.29908 0.14385 16027 ft 422 kts 99°
2026-04-18 07:23 51.29573 0.19071 16519 ft 426 kts 99°
2026-04-18 07:23 51.29234 0.23795 17018 ft 430 kts 99°
2026-04-18 07:23 51.28895 0.28519 17512 ft 434 kts 99°
2026-04-18 07:24 51.28548 0.33330 18011 ft 437 kts 99°
2026-04-18 07:24 51.28197 0.38186 18465 ft 441 kts 99°
2026-04-18 07:24 51.27843 0.43065 18886 ft 444 kts 99°
2026-04-18 07:24 51.27482 0.48002 19333 ft 448 kts 99°
2026-04-18 07:25 51.27118 0.52953 19781 ft 451 kts 99°
2026-04-18 07:25 51.26753 0.57890 20238 ft 454 kts 100°
2026-04-18 07:25 51.26379 0.62915 20709 ft 457 kts 100°
2026-04-18 07:25 51.26001 0.67968 21160 ft 460 kts 100°
2026-04-18 07:26 51.25618 0.73054 21614 ft 463 kts 100°
2026-04-18 07:26 51.25229 0.78180 22051 ft 466 kts 100°
2026-04-18 07:26 51.24835 0.83345 22510 ft 469 kts 100°
2026-04-18 07:26 51.24437 0.88536 22928 ft 472 kts 100°
2026-04-18 07:27 51.24035 0.93748 23377 ft 475 kts 100°
2026-04-18 07:27 51.23627 0.99013 23792 ft 479 kts 101°
2026-04-18 07:27 51.23214 1.04297 24086 ft 482 kts 101°
2026-04-18 07:27 51.22794 1.09632 24393 ft 485 kts 101°
2026-04-18 07:28 51.22370 1.14994 24704 ft 488 kts 101°
2026-04-18 07:28 51.21947 1.20315 25006 ft 491 kts 102°
2026-04-18 07:28 51.21512 1.25753 25321 ft 494 kts 102°
2026-04-18 07:28 51.21075 1.31196 25619 ft 497 kts 102°
2026-04-18 07:29 51.20631 1.36683 25917 ft 499 kts 102°
2026-04-18 07:29 51.20182 1.42188 26213 ft 502 kts 102°
2026-04-18 07:29 51.19728 1.47731 26504 ft 504 kts 102°
2026-04-18 07:29 51.19270 1.53303 26821 ft 506 kts 102°
2026-04-18 07:30 51.18808 1.58880 27095 ft 509 kts 102°
2026-04-18 07:30 51.18346 1.64415 27381 ft 512 kts 103°
2026-04-18 07:30 51.17873 1.70061 27646 ft 514 kts 103°
2026-04-18 07:30 51.17394 1.75735 27923 ft 517 kts 103°
2026-04-18 07:31 51.16910 1.81444 28188 ft 519 kts 103°
2026-04-18 07:31 51.16421 1.87166 28495 ft 522 kts 103°
2026-04-18 07:31 51.15928 1.92914 28726 ft 524 kts 103°
2026-04-18 07:31 51.15438 1.98592 29080 ft 524 kts 103°
2026-04-18 07:32 51.14938 2.04358 29336 ft 527 kts 103°
2026-04-18 07:32 51.14431 2.10157 29564 ft 529 kts 103°
2026-04-18 07:32 51.13920 2.15972 29807 ft 532 kts 103°
2026-04-18 07:32 51.13402 2.21823 30061 ft 534 kts 103°
2026-04-18 07:33 51.12882 2.27674 30396 ft 533 kts 103°
2026-04-18 07:33 51.12360 2.33523 30728 ft 532 kts 103°
2026-04-18 07:33 51.11837 2.39353 31050 ft 531 kts 103°
2026-04-18 07:33 51.11320 2.45093 31470 ft 528 kts 103°
2026-04-18 07:34 51.10796 2.50868 31824 ft 526 kts 103°
2026-04-18 07:34 51.10268 2.56640 32133 ft 526 kts 103°
2026-04-18 07:34 51.09595 2.62338 32435 ft 521 kts 110°
2026-04-18 07:34 51.08438 2.67736 32735 ft 512 kts 120°
2026-04-18 07:35 51.06942 2.72863 33056 ft 509 kts 122°
2026-04-18 07:35 51.05355 2.77870 33364 ft 506 kts 124°
2026-04-18 07:35 51.03713 2.82824 33669 ft 505 kts 124°
2026-04-18 07:35 51.02054 2.87731 33995 ft 503 kts 124°
2026-04-18 07:36 51.00416 2.92547 34336 ft 500 kts 124°
2026-04-18 07:36 50.98766 2.97405 34583 ft 500 kts 124°
2026-04-18 07:36 50.97117 3.02274 34826 ft 499 kts 124°
2026-04-18 07:36 50.95477 3.07126 35077 ft 498 kts 124°
2026-04-18 07:37 50.93841 3.11973 35312 ft 498 kts 124°
2026-04-18 07:37 50.92205 3.16819 35555 ft 497 kts 124°
2026-04-18 07:37 50.90574 3.21647 35803 ft 496 kts 124°
2026-04-18 07:37 50.88943 3.26466 36021 ft 496 kts 124°
2026-04-18 07:38 50.87334 3.31209 36214 ft 495 kts 124°
2026-04-18 07:38 50.85707 3.35996 36485 ft 493 kts 124°
2026-04-18 07:38 50.84078 3.40779 36712 ft 492 kts 124°
2026-04-18 07:38 50.82452 3.45546 36877 ft 492 kts 124°
2026-04-18 07:39 50.80822 3.50311 37094 ft 492 kts 124°
2026-04-18 07:39 50.79190 3.55070 37210 ft 492 kts 124°
2026-04-18 07:39 50.75950 3.64502 37213 ft 489 kts 124°
2026-04-18 07:40 50.72695 3.73942 37213 ft 489 kts 124°
2026-04-18 07:40 50.69441 3.83343 37210 ft 488 kts 124°
2026-04-18 07:41 50.66180 3.92729 37206 ft 487 kts 124°
2026-04-18 07:41 50.62920 4.02078 37206 ft 487 kts 124°
2026-04-18 07:42 50.59649 4.11423 37208 ft 487 kts 124°
2026-04-18 07:42 50.56376 4.20742 37199 ft 487 kts 124°
2026-04-18 07:43 50.53113 4.29997 37211 ft 487 kts 124°
2026-04-18 07:43 50.49824 4.39294 37211 ft 487 kts 124°
2026-04-18 07:44 50.46520 4.48597 37211 ft 487 kts 124°
2026-04-18 07:44 50.43214 4.57872 37210 ft 487 kts 124°
2026-04-18 07:45 50.39923 4.67072 37209 ft 487 kts 125°
2026-04-18 07:45 50.36603 4.76323 37206 ft 487 kts 125°
2026-04-18 07:46 50.33274 4.85562 37209 ft 487 kts 125°
2026-04-18 07:46 50.29934 4.94798 37210 ft 487 kts 125°
2026-04-18 07:47 50.26588 5.04020 37208 ft 487 kts 125°
2026-04-18 07:47 50.23235 5.13228 37208 ft 488 kts 124°
2026-04-18 07:48 50.19868 5.22438 37208 ft 488 kts 124°
2026-04-18 07:48 50.16514 5.31583 37213 ft 488 kts 125°
2026-04-18 07:49 50.13132 5.40772 37209 ft 488 kts 125°
2026-04-18 07:49 50.09740 5.49954 37190 ft 488 kts 124°
2026-04-18 07:50 50.06344 5.59113 37210 ft 488 kts 124°
2026-04-18 07:50 50.02944 5.68249 37218 ft 488 kts 124°
2026-04-18 07:51 49.99555 5.77327 37200 ft 488 kts 124°
2026-04-18 07:51 49.96136 5.86454 37218 ft 488 kts 124°
2026-04-18 07:52 49.92711 5.95561 37209 ft 488 kts 124°
2026-04-18 07:52 49.89272 6.04675 37211 ft 490 kts 124°
2026-04-18 07:53 49.85836 6.13799 37211 ft 490 kts 123°
2026-04-18 07:53 49.82601 6.23122 37205 ft 491 kts 121°
2026-04-18 07:54 49.79453 6.32524 37195 ft 492 kts 121°
2026-04-18 07:54 49.76307 6.41847 37205 ft 492 kts 121°
2026-04-18 07:55 49.73114 6.51214 37197 ft 493 kts 120°
2026-04-18 07:55 49.70234 6.60849 37187 ft 494 kts 116°
2026-04-18 07:56 49.68023 6.68994 37188 ft 495 kts 115°
2026-04-18 07:56 49.65360 6.78804 37190 ft 495 kts 115°
2026-04-18 07:57 49.62660 6.88546 37189 ft 492 kts 115°
2026-04-18 07:57 49.59939 6.98223 37189 ft 491 kts 116°
2026-04-18 07:58 49.55834 7.12718 37199 ft 491 kts 116°
2026-04-18 07:59 49.53092 7.22359 37196 ft 491 kts 115°
2026-04-18 07:59 49.50368 7.31903 37196 ft 489 kts 115°
2026-04-18 08:00 49.47617 7.41501 37194 ft 489 kts 115°
2026-04-18 08:00 49.44862 7.51076 37185 ft 489 kts 115°
2026-04-18 08:01 49.42256 7.60098 37186 ft 489 kts 116°
2026-04-18 08:01 49.39483 7.69659 37183 ft 490 kts 115°
2026-04-18 08:02 49.36706 7.79199 37184 ft 490 kts 115°
2026-04-18 08:02 49.33911 7.88761 37185 ft 490 kts 116°
2026-04-18 08:03 49.31130 7.98239 37186 ft 490 kts 116°
2026-04-18 08:03 49.28346 8.07689 37183 ft 490 kts 116°
2026-04-18 08:04 49.25536 8.17193 37182 ft 490 kts 116°
2026-04-18 08:04 49.22718 8.26685 37166 ft 490 kts 116°
2026-04-18 08:05 49.19886 8.36185 37181 ft 490 kts 116°
2026-04-18 08:05 49.17048 8.45670 37181 ft 490 kts 116°
2026-04-18 08:06 49.14227 8.55063 37180 ft 490 kts 116°
2026-04-18 08:06 49.11377 8.64515 37180 ft 490 kts 116°
2026-04-18 08:07 49.08521 8.73951 37182 ft 490 kts 116°
2026-04-18 08:07 49.05658 8.83374 37183 ft 490 kts 116°
2026-04-18 08:08 49.02788 8.92781 37179 ft 489 kts 116°
2026-04-18 08:08 48.99906 9.02194 37180 ft 491 kts 116°
2026-04-18 08:09 48.97010 9.11617 37182 ft 491 kts 116°
2026-04-18 08:09 48.94125 9.20967 37181 ft 491 kts 116°
2026-04-18 08:10 48.91210 9.30383 37182 ft 491 kts 116°
2026-04-18 08:10 48.88297 9.39753 37172 ft 490 kts 116°
2026-04-18 08:11 48.85374 9.49119 37184 ft 490 kts 116°
2026-04-18 08:11 48.82445 9.58471 37180 ft 490 kts 117°
2026-04-18 08:12 48.79510 9.67806 37179 ft 490 kts 116°
2026-04-18 08:12 48.76568 9.77130 37173 ft 490 kts 117°
2026-04-18 08:13 48.73620 9.86438 37184 ft 490 kts 117°
2026-04-18 08:13 48.70661 9.95744 37179 ft 490 kts 117°
2026-04-18 08:14 48.67718 10.04967 37193 ft 490 kts 117°
2026-04-18 08:14 48.64742 10.14258 37210 ft 489 kts 117°
2026-04-18 08:15 48.61768 10.23510 37203 ft 489 kts 117°
2026-04-18 08:15 48.58786 10.32754 37211 ft 489 kts 117°
2026-04-18 08:16 48.55810 10.41943 37210 ft 489 kts 117°
2026-04-18 08:16 48.52806 10.51186 37221 ft 489 kts 117°
2026-04-18 08:17 48.49807 10.60381 37214 ft 488 kts 117°
2026-04-18 08:17 48.46801 10.69563 37215 ft 488 kts 117°
2026-04-18 08:18 48.43805 10.78684 37210 ft 488 kts 117°
2026-04-18 08:18 48.40786 10.87839 37208 ft 488 kts 117°
2026-04-18 08:19 48.37758 10.96991 37210 ft 488 kts 117°
2026-04-18 08:19 48.34719 11.06140 37211 ft 488 kts 117°
2026-04-18 08:20 48.31673 11.15279 37207 ft 488 kts 117°
2026-04-18 08:20 48.28620 11.24407 37206 ft 488 kts 117°
2026-04-18 08:21 48.26021 11.33804 37204 ft 488 kts 106°
2026-04-18 08:21 48.24258 11.43640 37208 ft 488 kts 103°
2026-04-18 08:22 48.22652 11.53541 37204 ft 488 kts 103°
2026-04-18 08:22 48.21064 11.63386 37209 ft 488 kts 103°
2026-04-18 08:23 48.19441 11.73263 37213 ft 488 kts 103°
2026-04-18 08:23 48.17221 11.82846 37211 ft 488 kts 118°
2026-04-18 08:24 48.13671 11.91540 37209 ft 488 kts 123°
2026-04-18 08:24 48.09856 11.99945 37207 ft 488 kts 125°
2026-04-18 08:25 48.06016 12.08264 37205 ft 489 kts 124°
2026-04-18 08:25 48.02165 12.16648 37209 ft 489 kts 124°
2026-04-18 08:26 47.98321 12.25045 37200 ft 489 kts 124°
2026-04-18 08:26 47.94488 12.33408 37202 ft 488 kts 124°
2026-04-18 08:27 47.87164 12.49313 37202 ft 488 kts 124°
2026-04-18 08:28 47.83293 12.57644 37204 ft 488 kts 127°
2026-04-18 08:28 47.78787 12.65190 37206 ft 488 kts 134°
2026-04-18 08:29 47.74009 12.72402 37213 ft 488 kts 135°
2026-04-18 08:29 47.69261 12.79623 37209 ft 489 kts 129°
2026-04-18 08:30 47.65390 12.87837 37207 ft 488 kts 122°
2026-04-18 08:30 47.61780 12.96439 37208 ft 488 kts 120°
2026-04-18 08:31 47.58245 13.05039 37206 ft 488 kts 120°
2026-04-18 08:31 47.54698 13.13609 37202 ft 489 kts 120°
2026-04-18 08:32 47.51144 13.22116 37191 ft 488 kts 120°
2026-04-18 08:32 47.47560 13.30646 37215 ft 488 kts 120°
2026-04-18 08:33 47.43968 13.39168 37215 ft 489 kts 121°
2026-04-18 08:33 47.40370 13.47678 37207 ft 488 kts 120°
2026-04-18 08:34 47.36765 13.56182 37207 ft 488 kts 120°
2026-04-18 08:34 47.33159 13.64663 37226 ft 488 kts 120°
2026-04-18 08:35 47.29536 13.73157 37205 ft 488 kts 120°
2026-04-18 08:35 47.25942 13.81556 37210 ft 488 kts 120°
2026-04-18 08:36 47.22307 13.90021 37205 ft 489 kts 120°
2026-04-18 08:36 47.18665 13.98483 37207 ft 489 kts 120°
2026-04-18 08:37 47.15023 14.06920 37204 ft 489 kts 120°
2026-04-18 08:37 47.11367 14.15358 37205 ft 488 kts 120°
2026-04-18 08:38 47.07733 14.23720 37201 ft 488 kts 120°
2026-04-18 08:38 47.04076 14.32111 37199 ft 488 kts 120°
2026-04-18 08:39 47.00416 14.40484 37200 ft 488 kts 120°
2026-04-18 08:39 46.96746 14.48853 37221 ft 488 kts 119°
2026-04-18 08:40 46.93072 14.57208 37212 ft 489 kts 119°
2026-04-18 08:40 46.89384 14.65570 37212 ft 489 kts 119°
2026-04-18 08:41 46.85716 14.73858 37199 ft 489 kts 119°
2026-04-18 08:41 46.82012 14.82205 37221 ft 489 kts 119°
2026-04-18 08:42 46.78298 14.90550 37196 ft 490 kts 119°
2026-04-18 08:42 46.74577 14.98882 37196 ft 490 kts 119°
2026-04-18 08:43 46.70845 15.07217 37193 ft 491 kts 119°
2026-04-18 08:43 46.66852 15.16104 37223 ft 491 kts 119°
2026-04-18 08:44 46.63128 15.24443 37195 ft 492 kts 118°
2026-04-18 08:44 46.59467 15.32859 37202 ft 492 kts 117°
2026-04-18 08:45 46.55812 15.41283 37205 ft 492 kts 117°
2026-04-18 08:45 46.52170 15.49631 37240 ft 493 kts 118°
2026-04-18 08:46 46.48475 15.58060 37219 ft 493 kts 117°
2026-04-18 08:46 46.44799 15.66411 37217 ft 494 kts 117°
2026-04-18 08:47 46.41093 15.74803 37215 ft 494 kts 117°
2026-04-18 08:47 46.37377 15.83193 37196 ft 494 kts 117°
2026-04-18 08:48 46.34286 15.90158 37180 ft 494 kts 118°
2026-04-18 08:48 46.30548 15.98518 37194 ft 495 kts 118°
2026-04-18 08:49 46.26651 16.06725 37194 ft 496 kts 120°
2026-04-18 08:49 46.22670 16.14882 37196 ft 496 kts 120°
2026-04-18 08:50 46.18693 16.23029 37180 ft 496 kts 120°
2026-04-18 08:50 46.14743 16.31138 37178 ft 497 kts 120°
2026-04-18 08:51 46.10770 16.39288 37175 ft 496 kts 120°
2026-04-18 08:51 46.06791 16.47431 37177 ft 496 kts 120°
2026-04-18 08:52 46.02804 16.55564 37177 ft 496 kts 120°
2026-04-18 08:52 45.98846 16.63613 37176 ft 495 kts 120°
2026-04-18 08:53 45.94863 16.71691 37175 ft 496 kts 120°
2026-04-18 08:53 45.90868 16.79771 37172 ft 495 kts 120°
2026-04-18 08:54 45.86870 16.87832 37173 ft 496 kts 120°
2026-04-18 08:54 45.82853 16.95909 37170 ft 497 kts 120°
2026-04-18 08:55 45.78827 17.03979 37169 ft 497 kts 120°
2026-04-18 08:55 45.74822 17.11987 37203 ft 497 kts 120°
2026-04-18 08:56 45.70784 17.20037 37166 ft 498 kts 120°
2026-04-18 08:56 45.66733 17.28091 37169 ft 499 kts 120°
2026-04-18 08:57 45.60640 17.40157 37159 ft 499 kts 121°
2026-04-18 08:57 45.56578 17.48174 37161 ft 499 kts 121°
2026-04-18 08:58 45.52501 17.56198 37156 ft 499 kts 121°
2026-04-18 08:58 45.48427 17.64195 37157 ft 498 kts 121°
2026-04-18 08:59 45.44367 17.72142 37157 ft 499 kts 121°
2026-04-18 08:59 45.40277 17.80124 37159 ft 499 kts 121°
2026-04-18 09:00 45.36180 17.88097 37160 ft 499 kts 121°
2026-04-18 09:00 45.32070 17.96074 37156 ft 499 kts 121°
2026-04-18 09:01 45.27989 18.03972 37160 ft 499 kts 121°
2026-04-18 09:01 45.23874 18.11914 37150 ft 499 kts 122°
2026-04-18 09:02 45.19752 18.19847 37149 ft 499 kts 122°
2026-04-18 09:02 45.15631 18.27758 37152 ft 499 kts 122°
2026-04-18 09:03 45.11529 18.35611 37166 ft 499 kts 122°
2026-04-18 09:03 45.07422 18.43502 37143 ft 497 kts 122°
2026-04-18 09:04 45.03343 18.51394 37140 ft 497 kts 122°
2026-04-18 09:04 44.99252 18.59297 37143 ft 497 kts 122°
2026-04-18 09:05 44.95153 18.67183 37148 ft 498 kts 122°
2026-04-18 09:05 44.91070 18.75011 37143 ft 497 kts 122°
2026-04-18 09:06 44.86961 18.82868 37138 ft 497 kts 123°
2026-04-18 09:06 44.82871 18.90665 37136 ft 497 kts 123°
2026-04-18 09:07 44.78755 18.98492 37141 ft 497 kts 123°
2026-04-18 09:07 44.74626 19.06322 37132 ft 497 kts 123°
2026-04-18 09:08 44.70495 19.14135 37135 ft 498 kts 123°
2026-04-18 09:08 44.66350 19.21952 37138 ft 499 kts 123°
2026-04-18 09:09 44.62510 19.30023 37136 ft 496 kts 118°
2026-04-18 09:09 44.58941 19.38243 37135 ft 496 kts 117°
2026-04-18 09:10 44.55382 19.46559 37136 ft 496 kts 117°
2026-04-18 09:10 44.51826 19.54843 37155 ft 496 kts 117°
2026-04-18 09:11 44.48250 19.63125 37121 ft 496 kts 118°
2026-04-18 09:11 44.44669 19.71380 37124 ft 496 kts 118°
2026-04-18 09:12 44.41078 19.79636 37127 ft 497 kts 118°
2026-04-18 09:12 44.37498 19.87845 37122 ft 497 kts 118°
2026-04-18 09:13 44.33893 19.96085 37115 ft 497 kts 118°
2026-04-18 09:13 44.30283 20.04317 37114 ft 497 kts 118°
2026-04-18 09:14 44.26668 20.12534 37116 ft 497 kts 118°
2026-04-18 09:14 44.23067 20.20695 37112 ft 497 kts 118°
2026-04-18 09:15 44.19438 20.28897 37114 ft 497 kts 119°
2026-04-18 09:15 44.15795 20.37108 37107 ft 497 kts 119°
2026-04-18 09:16 44.12152 20.45295 37109 ft 497 kts 119°
2026-04-18 09:16 44.08528 20.53419 37097 ft 497 kts 119°
2026-04-18 09:17 44.04873 20.61587 37099 ft 497 kts 119°
2026-04-18 09:17 44.01211 20.69748 37088 ft 497 kts 119°
2026-04-18 09:18 43.97530 20.77895 37089 ft 498 kts 120°
2026-04-18 09:18 43.93734 20.85888 37086 ft 500 kts 122°
2026-04-18 09:19 43.89850 20.93887 37080 ft 500 kts 122°
2026-04-18 09:19 43.85965 21.01881 37081 ft 500 kts 122°
2026-04-18 09:20 43.82086 21.09878 37080 ft 500 kts 122°
2026-04-18 09:20 43.78199 21.17884 37074 ft 501 kts 122°
2026-04-18 09:21 43.74303 21.25886 37067 ft 501 kts 122°
2026-04-18 09:21 43.70402 21.33875 37071 ft 501 kts 122°
2026-04-18 09:22 43.66512 21.41820 37062 ft 501 kts 122°
2026-04-18 09:22 43.62593 21.49803 37053 ft 501 kts 122°
2026-04-18 09:23 43.58693 21.57725 37052 ft 501 kts 122°
2026-04-18 09:23 43.54769 21.65674 37051 ft 501 kts 123°
2026-04-18 09:24 43.50845 21.73599 37044 ft 501 kts 123°
2026-04-18 09:24 43.46906 21.81536 37045 ft 501 kts 123°
2026-04-18 09:25 43.42995 21.89395 37042 ft 501 kts 123°
2026-04-18 09:25 43.39055 21.97292 37046 ft 500 kts 123°
2026-04-18 09:26 43.35115 22.05168 37047 ft 500 kts 123°
2026-04-18 09:26 43.31165 22.13042 37044 ft 500 kts 123°
2026-04-18 09:27 43.27211 22.20902 37038 ft 500 kts 123°
2026-04-18 09:27 43.23247 22.28760 37037 ft 501 kts 123°
2026-04-18 09:28 43.19279 22.36608 37032 ft 501 kts 123°
2026-04-18 09:28 43.15306 22.44443 37032 ft 501 kts 124°
2026-04-18 09:29 43.11349 22.52228 37034 ft 501 kts 124°
2026-04-18 09:29 43.07365 22.60045 37034 ft 500 kts 124°
2026-04-18 09:30 43.03378 22.67846 37037 ft 500 kts 124°
2026-04-18 09:30 42.99386 22.75639 37032 ft 500 kts 124°
2026-04-18 09:31 42.94842 22.82812 37034 ft 500 kts 135°
2026-04-18 09:31 42.89825 22.89408 37030 ft 501 kts 137°
2026-04-18 09:32 42.84755 22.95839 37034 ft 501 kts 137°
2026-04-18 09:32 42.79642 23.02308 37039 ft 500 kts 137°
2026-04-18 09:33 42.74541 23.08778 37044 ft 500 kts 137°
2026-04-18 09:33 42.69454 23.15232 37046 ft 500 kts 137°
2026-04-18 09:34 42.64358 23.21686 37045 ft 500 kts 138°
2026-04-18 09:34 42.59263 23.28122 37043 ft 500 kts 138°
2026-04-18 09:35 42.54193 23.34510 37042 ft 500 kts 138°
2026-04-18 09:35 42.49099 23.40914 37045 ft 499 kts 138°
2026-04-18 09:36 42.44862 23.46228 37041 ft 499 kts 138°
2026-04-18 09:36 42.38928 23.53654 37045 ft 500 kts 138°
2026-04-18 09:37 42.33822 23.60029 37038 ft 500 kts 138°
2026-04-18 09:37 42.29565 23.65324 37034 ft 500 kts 139°
2026-04-18 09:38 42.24412 23.71631 37027 ft 500 kts 139°
2026-04-18 09:38 42.19249 23.77896 37026 ft 499 kts 139°
2026-04-18 09:39 42.14078 23.84161 37012 ft 499 kts 139°
2026-04-18 09:39 42.08902 23.90428 37018 ft 499 kts 139°
2026-04-18 09:40 42.03729 23.96678 37002 ft 500 kts 139°
2026-04-18 09:40 41.98590 24.02876 37006 ft 499 kts 139°
2026-04-18 09:41 41.93421 24.09094 37009 ft 498 kts 140°
2026-04-18 09:41 41.88266 24.15284 37001 ft 497 kts 140°
2026-04-18 09:42 41.83096 24.21475 37002 ft 497 kts 140°
2026-04-18 09:42 41.77930 24.27647 36995 ft 497 kts 140°
2026-04-18 09:43 41.72762 24.33809 36993 ft 497 kts 140°
2026-04-18 09:43 41.67626 24.39920 36986 ft 497 kts 140°
2026-04-18 09:44 41.62461 24.46051 36985 ft 496 kts 140°
2026-04-18 09:44 41.57286 24.52180 36980 ft 496 kts 140°
2026-04-18 09:45 41.52107 24.58298 36982 ft 496 kts 140°
2026-04-18 09:45 41.46933 24.64399 36983 ft 496 kts 140°
2026-04-18 09:46 41.41795 24.70446 36981 ft 495 kts 140°
2026-04-18 09:46 41.36637 24.76549 36983 ft 496 kts 140°
2026-04-18 09:47 41.31476 24.82662 36981 ft 496 kts 140°
2026-04-18 09:47 41.26323 24.88751 36983 ft 496 kts 140°
2026-04-18 09:48 41.21159 24.94835 36982 ft 496 kts 140°
2026-04-18 09:48 41.15991 25.00908 36979 ft 496 kts 140°
2026-04-18 09:49 41.10853 25.06935 36983 ft 494 kts 140°
2026-04-18 09:49 41.05697 25.12969 36978 ft 493 kts 140°
2026-04-18 09:50 41.00553 25.18975 36981 ft 493 kts 141°
2026-04-18 09:50 40.95401 25.24977 36979 ft 493 kts 141°
2026-04-18 09:51 40.90284 25.30927 36982 ft 492 kts 141°
2026-04-18 09:51 40.85135 25.36902 36984 ft 491 kts 141°
2026-04-18 09:52 40.80014 25.42886 36962 ft 492 kts 138°
2026-04-18 09:52 40.75378 25.49549 36967 ft 493 kts 133°
2026-04-18 09:53 40.70890 25.56398 36969 ft 494 kts 133°
2026-04-18 09:53 40.66424 25.63283 36966 ft 494 kts 133°
2026-04-18 09:54 40.61980 25.70099 36965 ft 493 kts 133°
2026-04-18 09:54 40.57503 25.76931 36958 ft 492 kts 133°
2026-04-18 09:55 40.53021 25.83745 36962 ft 492 kts 133°
2026-04-18 09:55 40.48825 25.90872 36960 ft 495 kts 126°
2026-04-18 09:56 40.45056 25.98443 36957 ft 495 kts 124°
2026-04-18 09:56 40.41367 26.06085 36948 ft 495 kts 124°
2026-04-18 09:57 40.37681 26.13719 36952 ft 495 kts 124°
2026-04-18 09:57 40.33980 26.21332 36930 ft 495 kts 124°
2026-04-18 09:58 40.30262 26.28941 36938 ft 495 kts 124°
2026-04-18 09:58 40.26562 26.36495 36938 ft 495 kts 124°
2026-04-18 09:59 40.22836 26.44081 36939 ft 495 kts 124°
2026-04-18 10:00 40.17233 26.55457 36936 ft 495 kts 124°
2026-04-18 10:00 40.13489 26.63035 36938 ft 497 kts 124°
2026-04-18 10:01 40.09735 26.70614 36936 ft 496 kts 125°
2026-04-18 10:01 40.05979 26.78182 36931 ft 497 kts 125°
2026-04-18 10:02 40.02215 26.85748 36920 ft 496 kts 125°
2026-04-18 10:02 39.98452 26.93291 36920 ft 495 kts 124°
2026-04-18 10:03 39.94718 27.00761 36914 ft 494 kts 124°
2026-04-18 10:03 39.90946 27.08287 36917 ft 499 kts 125°
2026-04-18 10:04 39.87122 27.15894 36910 ft 501 kts 125°
2026-04-18 10:04 39.83309 27.23470 36902 ft 498 kts 125°
2026-04-18 10:05 39.79516 27.30985 36900 ft 495 kts 125°
2026-04-18 10:05 39.75754 27.38418 36900 ft 495 kts 125°
2026-04-18 10:06 39.71955 27.45901 36904 ft 495 kts 125°
2026-04-18 10:06 39.68158 27.53367 36892 ft 495 kts 125°
2026-04-18 10:07 39.64353 27.60829 36901 ft 495 kts 125°
2026-04-18 10:07 39.60553 27.68266 36899 ft 494 kts 126°
2026-04-18 10:08 39.56763 27.75663 36908 ft 495 kts 125°
2026-04-18 10:08 39.52960 27.83071 36901 ft 494 kts 126°
2026-04-18 10:09 39.49123 27.90527 36912 ft 497 kts 126°
2026-04-18 10:09 39.45283 27.97977 36888 ft 497 kts 127°
2026-04-18 10:10 39.41452 28.05391 36902 ft 499 kts 126°
2026-04-18 10:10 39.37598 28.12833 36857 ft 492 kts 125°
2026-04-18 10:11 39.33801 28.20148 36856 ft 488 kts 126°
2026-04-18 10:11 39.30034 28.27384 36874 ft 488 kts 126°
2026-04-18 10:12 39.26238 28.34663 36869 ft 488 kts 126°
2026-04-18 10:12 39.22437 28.41936 36864 ft 488 kts 126°
2026-04-18 10:13 39.18635 28.49196 36851 ft 488 kts 126°
2026-04-18 10:13 39.14823 28.56458 36831 ft 488 kts 126°
2026-04-18 10:14 39.11035 28.63659 36844 ft 488 kts 126°
2026-04-18 10:14 39.07196 28.70939 36824 ft 489 kts 126°
2026-04-18 10:15 39.03398 28.78125 36828 ft 489 kts 126°
2026-04-18 10:15 38.99565 28.85361 36822 ft 489 kts 126°
2026-04-18 10:16 38.95725 28.92593 36807 ft 489 kts 126°
2026-04-18 10:16 38.91881 28.99818 36820 ft 490 kts 126°
2026-04-18 10:17 38.88001 29.07093 36816 ft 495 kts 126°
2026-04-18 10:17 38.84123 29.14349 36811 ft 495 kts 126°
2026-04-18 10:18 38.80224 29.21630 36814 ft 495 kts 126°
2026-04-18 10:18 38.76321 29.28900 36810 ft 496 kts 126°
2026-04-18 10:19 38.72404 29.36179 36792 ft 496 kts 126°
2026-04-18 10:19 38.68501 29.43417 36789 ft 496 kts 126°
2026-04-18 10:20 38.64548 29.50634 36788 ft 494 kts 127°
2026-04-18 10:20 38.60501 29.57766 36789 ft 494 kts 127°
2026-04-18 10:21 38.56465 29.64826 36786 ft 493 kts 127°
2026-04-18 10:21 38.52424 29.71904 36771 ft 493 kts 127°
2026-04-18 10:22 38.48384 29.78979 36770 ft 493 kts 127°
2026-04-18 10:22 38.44342 29.86049 36764 ft 493 kts 127°
2026-04-18 10:23 38.40280 29.93135 36763 ft 494 kts 127°
2026-04-18 10:23 38.36906 29.99009 36756 ft 495 kts 127°
2026-04-18 10:24 38.32835 30.06084 36753 ft 495 kts 127°
2026-04-18 10:24 38.28105 30.14287 36752 ft 494 kts 127°
2026-04-18 10:25 38.24700 30.20190 36750 ft 493 kts 127°
2026-04-18 10:25 38.20656 30.27182 36744 ft 493 kts 127°
2026-04-18 10:26 38.16581 30.34210 36745 ft 493 kts 127°
2026-04-18 10:26 38.12510 30.41215 36745 ft 493 kts 127°
2026-04-18 10:27 38.08438 30.48208 36742 ft 491 kts 127°
2026-04-18 10:27 38.04402 30.55125 36745 ft 490 kts 127°
2026-04-18 10:28 38.00335 30.62078 36745 ft 490 kts 127°
2026-04-18 10:28 37.96269 30.69024 36751 ft 490 kts 127°
2026-04-18 10:29 37.92204 30.75970 36745 ft 490 kts 127°
2026-04-18 10:29 37.88136 30.82908 36760 ft 491 kts 128°
2026-04-18 10:30 37.84059 30.89846 36763 ft 491 kts 128°
2026-04-18 10:30 37.80005 30.96731 36767 ft 491 kts 128°
2026-04-18 10:31 37.75933 31.03631 36761 ft 489 kts 128°
2026-04-18 10:31 37.71865 31.10510 36759 ft 488 kts 128°
2026-04-18 10:32 37.67792 31.17381 36756 ft 488 kts 128°
2026-04-18 10:32 37.63716 31.24243 36754 ft 488 kts 128°
2026-04-18 10:33 37.59639 31.31095 36747 ft 487 kts 129°
2026-04-18 10:33 37.55569 31.37920 36746 ft 487 kts 129°
2026-04-18 10:34 37.51493 31.44742 36730 ft 487 kts 129°
2026-04-18 10:34 37.47438 31.51512 36741 ft 487 kts 129°
2026-04-18 10:35 37.43349 31.58326 36732 ft 488 kts 129°
2026-04-18 10:35 37.39241 31.65158 36726 ft 489 kts 129°
2026-04-18 10:36 37.35129 31.71980 36722 ft 489 kts 129°
2026-04-18 10:36 37.31006 31.78797 36719 ft 489 kts 129°
2026-04-18 10:37 37.26911 31.85553 36716 ft 490 kts 130°
2026-04-18 10:37 37.22775 31.92363 36720 ft 490 kts 130°
2026-04-18 10:38 37.18632 31.99171 36720 ft 490 kts 130°
2026-04-18 10:38 37.14491 32.05962 36718 ft 490 kts 130°
2026-04-18 10:39 37.10365 32.12717 36712 ft 490 kts 130°
2026-04-18 10:39 37.06214 32.19497 36716 ft 489 kts 131°
2026-04-18 10:40 37.02061 32.26264 36718 ft 490 kts 131°
2026-04-18 10:40 36.97907 32.33024 36714 ft 490 kts 131°
2026-04-18 10:41 36.93741 32.39787 36715 ft 491 kts 131°
2026-04-18 10:41 36.89573 32.46538 36709 ft 491 kts 131°
2026-04-18 10:42 36.85401 32.53288 36710 ft 491 kts 131°
2026-04-18 10:42 36.81227 32.60031 36710 ft 492 kts 131°
2026-04-18 10:43 36.77062 32.66746 36711 ft 492 kts 131°
2026-04-18 10:43 36.72867 32.73495 36716 ft 492 kts 131°
2026-04-18 10:44 36.68672 32.80233 36716 ft 492 kts 131°
2026-04-18 10:44 36.64465 32.86974 36722 ft 493 kts 131°
2026-04-18 10:45 36.60272 32.93680 36719 ft 494 kts 132°
2026-04-18 10:45 36.56043 33.00432 36724 ft 494 kts 132°
2026-04-18 10:46 36.51813 33.07173 36724 ft 494 kts 132°
2026-04-18 10:46 36.47579 33.13903 36720 ft 494 kts 132°
2026-04-18 10:47 36.43336 33.20634 36710 ft 495 kts 132°
2026-04-18 10:47 36.39077 33.27376 36715 ft 496 kts 132°
2026-04-18 10:48 36.34833 33.34077 36717 ft 496 kts 133°
2026-04-18 10:48 36.30557 33.40809 36715 ft 496 kts 133°
2026-04-18 10:49 36.26279 33.47527 36703 ft 498 kts 133°
2026-04-18 10:49 36.21973 33.54277 36711 ft 499 kts 133°
2026-04-18 10:50 36.17692 33.60979 36707 ft 499 kts 133°
2026-04-18 10:50 36.13379 33.67715 36706 ft 499 kts 133°
2026-04-18 10:51 36.09059 33.74449 36708 ft 501 kts 133°
2026-04-18 10:51 36.04717 33.81203 36709 ft 502 kts 133°
2026-04-18 10:52 36.00367 33.87958 36706 ft 502 kts 133°
2026-04-18 10:52 35.96012 33.94708 36696 ft 502 kts 133°
2026-04-18 10:53 35.91393 34.01108 36699 ft 495 kts 144°
2026-04-18 10:53 35.85844 34.05912 36699 ft 489 kts 153°
2026-04-18 10:54 35.80021 34.10258 36697 ft 489 kts 155°
2026-04-18 10:54 35.74147 34.14522 36700 ft 490 kts 155°
2026-04-18 10:55 35.68285 34.18794 36699 ft 490 kts 155°
2026-04-18 10:55 35.62418 34.23068 36693 ft 490 kts 155°
2026-04-18 10:56 35.56569 34.27328 36700 ft 489 kts 156°
2026-04-18 10:56 35.50719 34.31584 36700 ft 488 kts 156°
2026-04-18 10:57 35.44865 34.35834 36702 ft 488 kts 156°
2026-04-18 10:57 35.39044 34.40053 36703 ft 488 kts 156°
2026-04-18 10:58 35.33191 34.44288 36708 ft 488 kts 156°
2026-04-18 10:58 35.27339 34.48515 36698 ft 488 kts 156°
2026-04-18 10:59 35.21486 34.52737 36711 ft 488 kts 156°
2026-04-18 10:59 35.15672 34.56922 36715 ft 487 kts 156°
2026-04-18 11:00 35.09826 34.61123 36717 ft 487 kts 156°
2026-04-18 11:00 35.03976 34.65320 36722 ft 488 kts 156°
2026-04-18 11:01 34.98116 34.69523 36714 ft 489 kts 156°
2026-04-18 11:01 34.92283 34.73705 36701 ft 489 kts 156°
2026-04-18 11:02 34.83461 34.80016 36718 ft 489 kts 157°
2026-04-18 11:02 34.77586 34.84211 36719 ft 490 kts 157°
2026-04-18 11:03 34.71695 34.88407 36725 ft 491 kts 157°
2026-04-18 11:03 34.65833 34.92576 36726 ft 491 kts 157°
2026-04-18 11:04 34.59925 34.96773 36730 ft 491 kts 157°
2026-04-18 11:04 34.54036 35.01011 36724 ft 495 kts 154°
2026-04-18 11:05 34.48884 35.06708 36732 ft 515 kts 134°
2026-04-18 11:05 34.46950 35.10394 36733 ft 526 kts 122°
2026-04-18 11:05 34.45507 35.14507 36732 ft 531 kts 116°
2026-04-18 11:06 34.43085 35.22951 36737 ft 535 kts 113°
2026-04-18 11:06 34.40796 35.31534 36739 ft 536 kts 113°
2026-04-18 11:07 34.38462 35.40105 36744 ft 536 kts 114°
2026-04-18 11:07 34.36078 35.48653 36749 ft 535 kts 114°
2026-04-18 11:08 34.33669 35.57199 36752 ft 535 kts 114°
2026-04-18 11:08 34.31263 35.65714 36764 ft 535 kts 113°
2026-04-18 11:09 34.29887 35.74601 36753 ft 543 kts 99°
2026-04-18 11:09 34.29358 35.83737 36762 ft 545 kts 96°
2026-04-18 11:10 34.28983 35.92905 36768 ft 546 kts 96°
2026-04-18 11:10 34.28618 36.02043 36463 ft 549 kts 96°
2026-04-18 11:11 34.28459 36.06662 35787 ft 550 kts 96°
2026-04-18 11:11 34.28302 36.11295 35009 ft 554 kts 96°
2026-04-18 11:11 34.28141 36.15959 34251 ft 557 kts 96°
2026-04-18 11:11 34.27976 36.20647 33420 ft 559 kts 96°
2026-04-18 11:12 34.27808 36.25343 32546 ft 560 kts 96°
2026-04-18 11:12 34.27695 36.28461 32061 ft 558 kts 97°
2026-04-18 11:12 34.27467 36.34701 31228 ft 552 kts 97°
2026-04-18 11:12 34.27355 36.37757 30935 ft 546 kts 97°
2026-04-18 11:13 34.27185 36.42322 30399 ft 541 kts 97°
2026-04-18 11:13 34.26744 36.46786 29749 ft 529 kts 110°
2026-04-18 11:13 34.25494 36.50870 29075 ft 508 kts 126°
2026-04-18 11:13 34.23525 36.54263 28555 ft 482 kts 141°
2026-04-18 11:14 34.21015 36.56795 27896 ft 458 kts 157°
2026-04-18 11:14 34.18185 36.58322 27161 ft 438 kts 173°
2026-04-18 11:14 34.15242 36.58762 26481 ft 418 kts 189°
2026-04-18 11:14 34.12435 36.58170 25847 ft 404 kts 201°
2026-04-18 11:15 34.09789 36.57276 25035 ft 396 kts 200°
2026-04-18 11:15 34.07125 36.56519 23868 ft 391 kts 197°
2026-04-18 11:15 34.04461 36.55933 22621 ft 386 kts 194°
2026-04-18 11:15 34.01822 36.55466 21337 ft 380 kts 193°
2026-04-18 11:16 33.99213 36.55067 20075 ft 374 kts 193°
2026-04-18 11:16 33.96643 36.54710 18870 ft 368 kts 192°
2026-04-18 11:16 33.94116 36.54378 17724 ft 361 kts 192°
2026-04-18 11:16 33.91673 36.54072 17030 ft 342 kts 192°
2026-04-18 11:17 33.89364 36.53790 16339 ft 326 kts 192°
2026-04-18 11:17 33.87140 36.53516 15453 ft 318 kts 192°
2026-04-18 11:17 33.84957 36.53235 14492 ft 313 kts 192°
2026-04-18 11:17 33.82786 36.53056 13541 ft 314 kts 185°
2026-04-18 11:18 33.80607 36.53380 12517 ft 318 kts 174°
2026-04-18 11:18 33.78477 36.54122 11524 ft 319 kts 169°
2026-04-18 11:18 33.76370 36.54983 10803 ft 319 kts 167°
2026-04-18 11:18 33.74284 36.55867 10355 ft 316 kts 166°
2026-04-18 11:19 33.72252 36.56738 10034 ft 312 kts 166°
2026-04-18 11:19 33.70205 36.57617 9599 ft 312 kts 166°
2026-04-18 11:19 33.68198 36.58482 9321 ft 298 kts 166°
2026-04-18 11:19 33.66310 36.59301 8941 ft 280 kts 166°
2026-04-18 11:20 33.64495 36.60082 8195 ft 276 kts 166°
2026-04-18 11:20 33.62664 36.60860 7131 ft 282 kts 167°
2026-04-18 11:20 33.60781 36.61659 5921 ft 292 kts 166°
2026-04-18 11:20 33.58841 36.62488 4745 ft 298 kts 166°
2026-04-18 11:21 33.56915 36.63316 3975 ft 288 kts 167°
2026-04-18 11:21 33.55110 36.64103 3540 ft 269 kts 166°
2026-04-18 11:21 33.53379 36.64508 3450 ft 239 kts 192°
2026-04-18 11:21 33.51921 36.63819 3452 ft 217 kts 215°
2026-04-18 11:22 33.50762 36.62799 3456 ft 197 kts 225°
2026-04-18 11:22 33.49869 36.61646 3447 ft 181 kts 229°
2026-04-18 11:22 33.49064 36.60586 3452 ft 163 kts 229°
2026-04-18 11:22 33.48342 36.59615 3391 ft 149 kts 229°
2026-04-18 11:23 33.47672 36.58721 3199 ft 141 kts 229°
2026-04-18 11:23 33.47036 36.57867 3031 ft 136 kts 231°
2026-04-18 11:23 33.46439 36.57062 2843 ft 122 kts 230°
2026-04-18 11:23 33.45893 36.56326 2699 ft 117 kts 229°
2026-04-18 11:24 33.45346 36.55586 2567 ft 121 kts 230°
2026-04-18 11:24 33.44780 36.54822 2389 ft 123 kts 229°
2026-04-18 11:24 33.44212 36.54060 2198 ft 122 kts 229°
2026-04-18 11:24 33.43657 36.53330 2055 ft 115 kts 232°
2026-04-18 11:25 33.43173 36.52654 2003 ft 93 kts 232°
2026-04-18 11:25 33.42816 36.52175 2006 ft 63 kts 228°
2026-04-18 11:25 33.42576 36.51851 2004 ft 41 kts 228°
2026-04-18 11:25 33.42412 36.51630 2004 ft 31 kts 228°
2026-04-18 11:26 33.42240 36.51507 2007 ft 27 kts 199°
2026-04-18 11:26 33.42089 36.51443 2006 ft 19 kts 200°
2026-04-18 11:26 33.42004 36.51380 2001 ft 8 kts 227°
2026-04-18 11:26 33.41996 36.51369 2001 ft 0 kts 228°
2026-04-18 11:27 33.41994 36.51367 2001 ft 1 kts 228°
2026-04-18 11:27 33.41981 36.51349 2001 ft 5 kts 228°
2026-04-18 11:27 33.41957 36.51317 2002 ft 5 kts 229°
2026-04-18 11:28 33.41932 36.51282 2001 ft 6 kts 229°
2026-04-18 11:28 33.41906 36.51247 2002 ft 6 kts 227°
2026-04-18 11:28 33.41864 36.51234 2002 ft 6 kts 164°
2026-04-18 11:28 33.41823 36.51269 2003 ft 9 kts 140°
2026-04-18 11:29 33.41776 36.51318 2001 ft 10 kts 138°
2026-04-18 11:29 33.41720 36.51378 2001 ft 12 kts 138°
2026-04-18 11:29 33.41645 36.51408 2002 ft 12 kts 184°
2026-04-18 11:29 33.41559 36.51401 2001 ft 13 kts 182°
2026-04-18 11:30 33.41470 36.51396 2000 ft 13 kts 183°
2026-04-18 11:30 33.41378 36.51387 2003 ft 13 kts 194°
2026-04-18 11:30 33.41328 36.51334 1999 ft 7 kts 229°
2026-04-18 11:30 33.41324 36.51329 2002 ft 1 kts 227°
2026-04-18 11:31 33.41320 36.51322 2002 ft 0 kts 228°
2026-04-18 11:31 33.41318 36.51320 2002 ft 0 kts 229°